LNI978 WICC-WAHS

Flight info

Callsign LNI978
Flight time 0h 44m
Altitude 23000
Route CA W45 PIALA
Aircraft B738/M-SDE2E3FGHIRWXY/LB1

Departure

Time 2026-04-29 09:38
Airport Husein Sastranegara International Airport (WICC)

Arrival

Time 2026-04-29 10:23
Airport Jenderal Ahmad Yani Airport (WAHS)
Time Latitude Longitude Altitude Speed Heading
2026-04-29 08:44 -6.90289 107.57919 2403 ft 0 kts 189°
2026-04-29 09:33 -6.90290 107.57919 2409 ft 1 kts 189°
2026-04-29 09:33 -6.90308 107.57910 2409 ft 5 kts 221°
2026-04-29 09:33 -6.90316 107.57873 2409 ft 7 kts 274°
2026-04-29 09:33 -6.90306 107.57796 2422 ft 14 kts 278°
2026-04-29 09:34 -6.90291 107.57700 2409 ft 14 kts 278°
2026-04-29 09:34 -6.90232 107.57673 2406 ft 10 kts 19°
2026-04-29 09:34 -6.90221 107.57677 2406 ft 1 kts 20°
2026-04-29 09:34 -6.90189 107.57689 2406 ft 7 kts 19°
2026-04-29 09:35 -6.90126 107.57707 2415 ft 12 kts
2026-04-29 09:35 -6.90066 107.57632 2407 ft 19 kts 285°
2026-04-29 09:35 -6.90014 107.57475 2407 ft 27 kts 289°
2026-04-29 09:35 -6.89948 107.57286 2413 ft 30 kts 289°
2026-04-29 09:36 -6.89883 107.57094 2403 ft 28 kts 289°
2026-04-29 09:36 -6.89821 107.56914 2408 ft 26 kts 289°
2026-04-29 09:36 -6.89777 107.56743 2408 ft 22 kts 278°
2026-04-29 09:36 -6.89748 107.56681 2411 ft 6 kts 30°
2026-04-29 09:37 -6.89749 107.56699 2405 ft 2 kts 108°
2026-04-29 09:38 -6.89806 107.56867 2417 ft 69 kts 109°
2026-04-29 09:38 -6.90056 107.57605 2416 ft 151 kts 108°
2026-04-29 09:38 -6.90481 107.58776 2802 ft 191 kts 109°
2026-04-29 09:38 -6.90923 107.60024 4034 ft 186 kts 108°
2026-04-29 09:39 -6.91370 107.61316 4687 ft 202 kts 109°
2026-04-29 09:39 -6.91857 107.62742 4959 ft 231 kts 107°
2026-04-29 09:39 -6.92384 107.64353 5237 ft 257 kts 107°
2026-04-29 09:39 -6.92955 107.66112 5885 ft 267 kts 107°
2026-04-29 09:40 -6.93524 107.67856 6804 ft 269 kts 107°
2026-04-29 09:40 -6.94110 107.69640 7728 ft 271 kts 107°
2026-04-29 09:40 -6.94710 107.71448 8605 ft 276 kts 107°
2026-04-29 09:40 -6.95323 107.73288 9529 ft 279 kts 107°
2026-04-29 09:41 -6.95950 107.75179 10247 ft 290 kts 107°
2026-04-29 09:41 -6.96600 107.77121 11012 ft 295 kts 107°
2026-04-29 09:41 -6.97261 107.79092 11812 ft 299 kts 107°
2026-04-29 09:41 -6.97930 107.81090 12595 ft 303 kts 107°
2026-04-29 09:42 -6.98602 107.83099 13367 ft 308 kts 107°
2026-04-29 09:42 -6.99293 107.85164 14097 ft 313 kts 107°
2026-04-29 09:42 -6.99988 107.87249 14818 ft 315 kts 107°
2026-04-29 09:42 -7.00451 107.88638 15294 ft 317 kts 107°
2026-04-29 09:43 -7.01052 107.90783 15992 ft 319 kts 94°
2026-04-29 09:43 -7.00867 107.92994 16720 ft 318 kts 74°
2026-04-29 09:43 -7.00024 107.95056 17429 ft 321 kts 57°
2026-04-29 09:43 -6.98708 107.96874 18118 ft 324 kts 52°
2026-04-29 09:44 -6.97291 107.98661 18699 ft 328 kts 51°
2026-04-29 09:44 -6.95837 108.00460 19249 ft 333 kts 51°
2026-04-29 09:44 -6.94361 108.02273 19851 ft 336 kts 51°
2026-04-29 09:44 -6.92866 108.04107 20439 ft 339 kts 51°
2026-04-29 09:45 -6.91357 108.05958 20682 ft 355 kts 51°
2026-04-29 09:45 -6.89756 108.07925 20854 ft 371 kts 51°
2026-04-29 09:45 -6.88092 108.09971 21078 ft 383 kts 51°
2026-04-29 09:45 -6.86416 108.12035 21844 ft 377 kts 51°
2026-04-29 09:46 -6.84737 108.14092 22373 ft 382 kts 51°
2026-04-29 09:46 -6.83050 108.16159 22820 ft 381 kts 51°
2026-04-29 09:46 -6.81353 108.18240 22855 ft 387 kts 51°
2026-04-29 09:46 -6.79658 108.20324 22861 ft 380 kts 51°
2026-04-29 09:47 -6.77997 108.22365 22850 ft 377 kts 51°
2026-04-29 09:47 -6.76344 108.24398 22859 ft 373 kts 51°
2026-04-29 09:47 -6.74854 108.26520 22839 ft 369 kts 65°
2026-04-29 09:47 -6.74078 108.28961 22869 ft 369 kts 79°
2026-04-29 09:48 -6.73647 108.31521 22868 ft 370 kts 81°
2026-04-29 09:48 -6.73262 108.34089 22864 ft 372 kts 81°
2026-04-29 09:48 -6.72881 108.36665 22867 ft 372 kts 81°
2026-04-29 09:48 -6.72494 108.39208 22862 ft 372 kts 81°
2026-04-29 09:49 -6.72082 108.41814 22862 ft 372 kts 81°
2026-04-29 09:49 -6.71671 108.44383 22848 ft 371 kts 81°
2026-04-29 09:49 -6.71264 108.46920 22852 ft 371 kts 81°
2026-04-29 09:49 -6.70851 108.49477 22866 ft 370 kts 81°
2026-04-29 09:50 -6.70435 108.52044 22852 ft 370 kts 81°
2026-04-29 09:50 -6.70022 108.54599 22852 ft 370 kts 81°
2026-04-29 09:50 -6.69870 108.57004 22839 ft 370 kts 96°
2026-04-29 09:50 -6.70263 108.59559 22861 ft 369 kts 99°
2026-04-29 09:51 -6.70697 108.62082 22868 ft 370 kts 99°
2026-04-29 09:51 -6.71138 108.64637 22858 ft 371 kts 99°
2026-04-29 09:51 -6.71572 108.67200 22854 ft 371 kts 99°
2026-04-29 09:51 -6.71997 108.69765 22848 ft 372 kts 99°
2026-04-29 09:52 -6.72417 108.72338 22849 ft 372 kts 99°
2026-04-29 09:52 -6.72833 108.74907 22845 ft 372 kts 99°
2026-04-29 09:52 -6.73246 108.77479 22847 ft 372 kts 99°
2026-04-29 09:52 -6.73658 108.80049 22850 ft 371 kts 99°
2026-04-29 09:53 -6.74069 108.82613 22857 ft 371 kts 99°
2026-04-29 09:53 -6.74479 108.85178 22841 ft 371 kts 99°
2026-04-29 09:53 -6.74885 108.87717 22846 ft 371 kts 99°
2026-04-29 09:53 -6.75293 108.90277 22849 ft 370 kts 99°
2026-04-29 09:54 -6.75702 108.92840 22846 ft 370 kts 99°
2026-04-29 09:54 -6.76111 108.95400 22854 ft 371 kts 99°
2026-04-29 09:54 -6.76520 108.97960 22851 ft 371 kts 99°
2026-04-29 09:54 -6.76928 109.00517 22860 ft 371 kts 99°
2026-04-29 09:55 -6.77337 109.03080 22855 ft 371 kts 99°
2026-04-29 09:55 -6.77746 109.05647 22860 ft 371 kts 99°
2026-04-29 09:55 -6.78156 109.08222 22859 ft 371 kts 99°
2026-04-29 09:55 -6.78565 109.10788 22854 ft 371 kts 99°
2026-04-29 09:56 -6.78974 109.13355 22838 ft 371 kts 99°
2026-04-29 09:56 -6.79373 109.15922 22847 ft 371 kts 98°
2026-04-29 09:56 -6.79758 109.18483 22840 ft 371 kts 98°
2026-04-29 09:56 -6.80141 109.21059 22639 ft 374 kts 98°
2026-04-29 09:57 -6.80528 109.23661 22115 ft 377 kts 98°
2026-04-29 09:57 -6.80915 109.26264 21644 ft 375 kts 98°
2026-04-29 09:57 -6.81299 109.28847 21217 ft 372 kts 98°
2026-04-29 09:57 -6.81682 109.31422 20782 ft 370 kts 98°
2026-04-29 09:58 -6.82063 109.33977 20387 ft 367 kts 98°
2026-04-29 09:58 -6.82440 109.36503 20018 ft 363 kts 98°
2026-04-29 09:58 -6.82813 109.39009 19648 ft 360 kts 98°
2026-04-29 09:58 -6.83182 109.41489 19280 ft 357 kts 98°
2026-04-29 09:59 -6.83544 109.43920 18924 ft 354 kts 98°
2026-04-29 09:59 -6.83908 109.46358 18565 ft 351 kts 98°
2026-04-29 09:59 -6.84269 109.48784 18210 ft 348 kts 98°
2026-04-29 09:59 -6.84626 109.51185 17809 ft 346 kts 98°
2026-04-29 10:00 -6.84981 109.53568 17379 ft 344 kts 98°
2026-04-29 10:00 -6.85335 109.55947 16956 ft 342 kts 98°
2026-04-29 10:00 -6.85686 109.58307 16541 ft 340 kts 98°
2026-04-29 10:00 -6.86035 109.60661 16132 ft 339 kts 97°
2026-04-29 10:01 -6.86383 109.63001 15729 ft 338 kts 97°
2026-04-29 10:01 -6.86722 109.65282 15500 ft 331 kts 98°
2026-04-29 10:01 -6.87060 109.67554 15227 ft 326 kts 97°
2026-04-29 10:01 -6.87396 109.69818 14990 ft 321 kts 98°
2026-04-29 10:02 -6.87720 109.71998 14739 ft 317 kts 98°
2026-04-29 10:02 -6.88045 109.74188 14483 ft 316 kts 97°
2026-04-29 10:02 -6.88369 109.76370 14228 ft 314 kts 97°
2026-04-29 10:02 -6.88692 109.78540 13988 ft 313 kts 98°
2026-04-29 10:03 -6.89011 109.80700 13735 ft 312 kts 98°
2026-04-29 10:03 -6.89331 109.82858 13472 ft 311 kts 98°
2026-04-29 10:03 -6.89649 109.85010 13192 ft 309 kts 98°
2026-04-29 10:03 -6.89965 109.87150 12918 ft 308 kts 98°
2026-04-29 10:04 -6.90280 109.89278 12652 ft 307 kts 98°
2026-04-29 10:04 -6.90595 109.91403 12349 ft 306 kts 98°
2026-04-29 10:04 -6.90907 109.93510 12044 ft 303 kts 98°
2026-04-29 10:04 -6.91216 109.95599 11751 ft 300 kts 97°
2026-04-29 10:05 -6.91521 109.97661 11460 ft 297 kts 98°
2026-04-29 10:05 -6.91825 109.99714 11174 ft 295 kts 98°
2026-04-29 10:05 -6.92126 110.01755 10898 ft 293 kts 97°
2026-04-29 10:05 -6.92424 110.03771 10623 ft 291 kts 97°
2026-04-29 10:06 -6.92718 110.05761 10322 ft 290 kts 98°
2026-04-29 10:06 -6.93015 110.07769 10019 ft 289 kts 98°
2026-04-29 10:06 -6.93311 110.09771 9725 ft 288 kts 97°
2026-04-29 10:06 -6.93606 110.11771 9397 ft 287 kts 97°
2026-04-29 10:07 -6.93904 110.13758 9078 ft 286 kts 98°
2026-04-29 10:07 -6.94196 110.15735 8753 ft 285 kts 98°
2026-04-29 10:07 -6.94482 110.17697 8419 ft 282 kts 98°
2026-04-29 10:07 -6.94763 110.19617 8110 ft 279 kts 98°
2026-04-29 10:08 -6.95045 110.21532 7781 ft 273 kts 98°
2026-04-29 10:08 -6.95321 110.23399 7421 ft 267 kts 98°
2026-04-29 10:08 -6.95591 110.25232 7087 ft 261 kts 98°
2026-04-29 10:08 -6.95854 110.27024 6757 ft 257 kts 98°
2026-04-29 10:09 -6.96114 110.28790 6421 ft 252 kts 98°
2026-04-29 10:09 -6.96370 110.30529 6104 ft 250 kts 98°
2026-04-29 10:09 -6.96624 110.32255 5754 ft 248 kts 98°
2026-04-29 10:09 -6.96871 110.33935 5517 ft 242 kts 98°
2026-04-29 10:10 -6.97119 110.35626 5325 ft 241 kts 98°
2026-04-29 10:10 -6.97362 110.37277 5163 ft 240 kts 98°
2026-04-29 10:10 -6.97644 110.38912 5051 ft 235 kts 102°
2026-04-29 10:10 -6.98010 110.40499 4921 ft 229 kts 103°
2026-04-29 10:11 -6.98379 110.42044 4793 ft 224 kts 103°
2026-04-29 10:11 -6.98738 110.43554 4665 ft 218 kts 103°
2026-04-29 10:11 -6.99086 110.45027 4537 ft 213 kts 102°
2026-04-29 10:11 -6.99425 110.46478 4406 ft 213 kts 103°
2026-04-29 10:12 -6.99762 110.47921 4287 ft 209 kts 102°
2026-04-29 10:12 -7.00082 110.49296 4163 ft 202 kts 102°
2026-04-29 10:12 -7.00402 110.50676 4001 ft 202 kts 102°
2026-04-29 10:12 -7.00721 110.52052 3870 ft 202 kts 102°
2026-04-29 10:13 -7.01045 110.53433 3717 ft 202 kts 102°
2026-04-29 10:13 -7.01365 110.54820 3579 ft 205 kts 102°
2026-04-29 10:13 -7.01532 110.56236 3390 ft 205 kts 79°
2026-04-29 10:13 -7.00933 110.57523 3276 ft 205 kts 63°
2026-04-29 10:14 -7.00302 110.58792 3122 ft 201 kts 63°
2026-04-29 10:14 -6.99637 110.60040 3045 ft 202 kts 64°
2026-04-29 10:14 -6.99098 110.61341 2995 ft 199 kts 69°
2026-04-29 10:14 -6.98560 110.62597 3004 ft 194 kts 66°
2026-04-29 10:15 -6.98134 110.63872 2979 ft 192 kts 89°
2026-04-29 10:15 -6.98641 110.65022 3023 ft 188 kts 135°
2026-04-29 10:15 -6.99692 110.65857 2999 ft 196 kts 147°
2026-04-29 10:15 -7.00999 110.66176 2998 ft 199 kts 185°
2026-04-29 10:16 -7.02279 110.65647 2997 ft 202 kts 217°
2026-04-29 10:16 -7.02925 110.64942 3014 ft 206 kts 238°
2026-04-29 10:16 -7.03340 110.63121 3014 ft 204 kts 277°
2026-04-29 10:16 -7.03034 110.61726 3016 ft 199 kts 285°
2026-04-29 10:17 -7.02707 110.60409 2983 ft 188 kts 284°
2026-04-29 10:17 -7.02416 110.59138 3002 ft 185 kts 283°
2026-04-29 10:17 -7.02134 110.57861 2985 ft 185 kts 284°
2026-04-29 10:17 -7.01808 110.56634 2989 ft 180 kts 284°
2026-04-29 10:18 -7.01845 110.55380 2973 ft 187 kts 243°
2026-04-29 10:18 -7.02774 110.54495 2902 ft 188 kts 206°
2026-04-29 10:18 -7.03835 110.53707 2751 ft 190 kts 221°
2026-04-29 10:18 -7.04813 110.52847 2640 ft 183 kts 217°
2026-04-29 10:19 -7.05780 110.52045 2538 ft 180 kts 218°
2026-04-29 10:19 -7.06734 110.51225 2436 ft 183 kts 228°
2026-04-29 10:19 -7.07238 110.50063 2303 ft 185 kts 272°
2026-04-29 10:19 -7.06831 110.48871 2225 ft 185 kts 307°
2026-04-29 10:20 -7.05987 110.47888 2123 ft 181 kts 312°
2026-04-29 10:20 -7.05204 110.46937 2035 ft 176 kts 311°
2026-04-29 10:20 -7.04417 110.45999 1915 ft 176 kts 311°
2026-04-29 10:20 -7.03625 110.45065 1770 ft 173 kts 312°
2026-04-29 10:21 -7.02867 110.44178 1515 ft 161 kts 312°
2026-04-29 10:21 -7.02138 110.43326 1310 ft 160 kts 312°
2026-04-29 10:21 -7.01415 110.42474 1117 ft 157 kts 313°
2026-04-29 10:21 -7.00708 110.41636 919 ft 156 kts 312°
2026-04-29 10:22 -7.00020 110.40817 763 ft 150 kts 313°
2026-04-29 10:22 -6.99349 110.40027 576 ft 150 kts 312°
2026-04-29 10:22 -6.98672 110.39226 372 ft 150 kts 313°
2026-04-29 10:22 -6.98020 110.38447 133 ft 143 kts 312°
2026-04-29 10:23 -6.97388 110.37705 8 ft 131 kts 313°
2026-04-29 10:23 -6.97023 110.37277 4 ft 109 kts 310°
2026-04-29 10:23 -6.96694 110.36884 5 ft 43 kts 308°
2026-04-29 10:23 -6.96614 110.36777 5 ft 2 kts 347°
2026-04-29 10:24 -6.96622 110.36805 6 ft 10 kts 124°
2026-04-29 10:24 -6.96706 110.36904 5 ft 23 kts 130°
2026-04-29 10:24 -6.96792 110.37030 6 ft 20 kts 88°
2026-04-29 10:24 -6.96707 110.37121 15 ft 8 kts 39°
2026-04-29 10:25 -6.96677 110.37146 18 ft 8 kts 39°
2026-04-29 10:25 -6.96635 110.37182 17 ft 8 kts 40°
2026-04-29 10:25 -6.96628 110.37230 18 ft 8 kts 123°
2026-04-29 10:25 -6.96672 110.37283 18 ft 12 kts 130°
2026-04-29 10:26 -6.96721 110.37342 18 ft 11 kts 130°
2026-04-29 10:26 -6.96770 110.37401 18 ft 11 kts 130°
2026-04-29 10:26 -6.96775 110.37457 18 ft 9 kts 46°
2026-04-29 10:26 -6.96748 110.37480 18 ft 1 kts 39°
2026-04-29 10:27 -6.96740 110.37487 18 ft 0 kts 39°